This demonstration page uses our WeatherBlox Daily Observations layout. Learn more.

38.89511, -77.03637

Hourly Observations for September 12, 2016

Temp ( °F °C ) Dew Point ( °F °C ) Humidity (%) Winds ( mph kmh ) Pressure ( in mb ) Visibility ( mi km ) Precip ( " mm )
12:52 am 00:52 Partly Cloudy 70 21.1 61 16.1 73 73 NNW 7 11 30.15 1021 10 16.0934 0 0
1:52 am 01:52 Partly Cloudy 70 21.1 58 14.4 66 66 N 8 13 30.15 1021 10 16.0934 0 0
2:52 am 02:52 Partly Cloudy 71 21.7 55 12.8 57 57 NNE 9 15 30.16 1021 10 16.0934 0 0
3:52 am 03:52 Partly Cloudy 70 21.1 55 12.8 59 59 NNE 9 15 30.17 1022 10 16.0934 0 0
4:52 am 04:52 Partly Cloudy 68 20 55 12.8 63 63 NNE 9 15 30.18 1022 10 16.0934 0 0
5:52 am 05:52 Mostly Clear 68 20 55 12.8 63 63 NNE 8 13 30.2 1023 10 16.0934 0 0
6:52 am 06:52 Mostly Sunny 67 19.4 54 12.2 63 63 NNE 10 17 30.22 1023 10 16.0934 0 0
7:52 am 07:52 Mostly Sunny 68 20 54 12.2 61 61 NE 9 15 30.23 1024 10 16.0934 0 0
8:52 am 08:52 Mostly Sunny 71 21.7 53 11.7 53 53 NE 9 15 30.24 1024 10 16.0934 0 0
9:52 am 09:52 Mostly Sunny 74 23.3 52 11.1 46 46 NE 9 15 30.25 1024 10 16.0934 0 0
10:52 am 10:52 Mostly Sunny 77 25 54 12.2 45 45 NE 9 15 30.25 1024 10 16.0934 0 0
11:52 am 11:52 Mostly Sunny 79 26.1 53 11.7 41 41 NE 7 11 30.24 1024 10 16.0934 0 0
12:52 pm 12:52 Mostly Sunny 81 27.2 54 12.2 39 39 NE 7 11 30.23 1024 10 16.0934 0 0
1:52 pm 13:52 Partly Cloudy 84 28.9 55 12.8 37 37 NE 6 9 30.21 1023 10 16.0934 0 0
2:52 pm 14:52 Partly Cloudy 85 29.4 54 12.2 35 35 NNE 7 11 30.19 1022 10 16.0934 0 0
3:52 pm 15:52 Partly Cloudy 82 27.8 55 12.8 40 40 VRB 6 9 30.18 1022 10 16.0934 0 0
4:52 pm 16:52 Partly Cloudy 83 28.3 55 12.8 38 38 ENE 5 7 30.17 1022 10 16.0934 0 0
5:52 pm 17:52 Partly Cloudy 82 27.8 55 12.8 40 40 SE 6 9 30.17 1022 10 16.0934 0 0
6:52 pm 18:52 Partly Cloudy 80 26.7 57 13.9 45 45 SE 9 15 30.17 1022 10 16.0934 0 0
7:16 pm 19:16 Mostly Sunny 79 26 57 14 48 48 SE 9 15 30.18 1022 10 16.0934 0 0
7:52 pm 19:52 Mostly Clear 77 25 57 13.9 50 50 SE 8 13 30.17 1022 10 16.0934 0 0
7:59 pm 19:59 Mostly Clear 77 25 57 13.9 50 50 ESE 8 13 30.18 1022 10 16.0934 0 0
8:52 pm 20:52 Mostly Clear 76 24.4 59 15 56 56 ESE 9 15 30.18 1022 10 16.0934 0 0
9:52 pm 21:52 Mostly Clear 74 23.3 60 15.6 62 62 ESE 8 13 30.19 1022 10 16.0934 0 0
10:52 pm 22:52 Mostly Clear 73 22.8 60 15.6 64 64 SSE 3 6 30.21 1023 10 16.0934 0 0
11:52 pm 23:52 Mostly Clear 72 22.2 63 17.2 73 73 S 9 15 30.2 1023 10 16.0934 0 0

Powered by AerisWeather